Tracking 27112 objects as of 28-Mar-2023
HD Live streaming from Space Station
objects crossing your sky now

STARLINK-4080

Track STARLINK-4080 now!
10-day predictions
STARLINK-4080 is classified as:


NORAD ID: 52835
Int'l Code: 2022-062F
Perigee: 545.7 km
Apogee: 547.9 km
Inclination: 53.2 °
Period: 95.4 minutes
Semi major axis: 6917 km
RCS: Unknown
Launch date: June 17, 2022
Source: United States (US)
Launch site: AIR FORCE EASTERN TEST RANGE (AFETR)
Your satellite tracking list
Your tracking list is empty




NASA's NSSDC Master Catalog

Two Line Element Set (TLE):
1 52835U 22062F   23086.56782407  .00004965  00000-0  32953-3 0  9992
2 52835  53.2156 193.9991 0001541  94.5314 265.5855 15.08871399 43021
Source of the keplerian elements: AFSPC